Location: Crescent
(42.8242°N, 73.7329°W)
Time: 06:51:22
(UTC+00:00)

Explorer 7 - Pass Details

Date: 17 February 2026
Orbit: 430 x 541 km, 50.2° (Epoch: 9 March)

Event Time Altitude Azimuth Distance (km) Brightness Sun altitude
Rises 02:56:39 0° 294° (WNW) 2,595 - -48.0°
Reaches altitude 10° 02:58:59 10° 283° (WNW) 1,729 - -48.3°
Maximum altitude 03:02:27 30° 222° (SW) 952 - -48.8°
Drops below altitude 10° 03:06:00 10° 160° (SSE) 1,771 - -49.3°
Sets 03:08:25 0° 150° (SSE) 2,671 - -49.6°
